Location: Artiguedieu
(43.5000°N, 0.5454°E)
Time: 01:39:34
(UTC+00:00)

Transit 2A Rocket - Pass Details

Date: 06 August 2021
Orbit: 586 x 916 km, 66.7° (Epoch: 16 September)

Event Time Altitude Azimuth Distance (km) Brightness Sun altitude
Rises 20:38:15 0° 333° (NNW) 3,273 9.6 -13.9°
Reaches altitude 10° 20:40:43 10° 341° (NNW) 2,392 8.5 -14.2°
Maximum altitude 20:45:59 41° 51° (NE) 1,211 5.9 -14.9°
Enters shadow 20:49:29 21° 110° (ESE) 1,872 6.4 -15.4°
Drops below altitude 10° 20:51:34 10° 121° (ESE) 2,552 - -15.7°
Sets 20:54:17 0° 128° (SE) 3,515 - -16.0°
